Flight Track Log - Related Links

Times and Time Zones

All times are in EDT time to prevent confusion due to time zone crossing. See the SWA862 flight status page for this flight to view local times or setup timezone preferences in your user account.

Time Position Orientation Groundspeed Altitude Reporting Facility
EDT Latitude Longitude Course Direction KTS MPH feet Rate Location/Type
Sun 22:04:36 39.1100 -76.5064 110° East 211 243 6,500  Level Washington Center
Sun 22:05:36 39.1275 -76.3969 78° East 252 290 10,500 3,500 Climbing Washington Center
Sun 22:06:36 39.1492 -76.2714 77° East 320 368 13,500 2,950 Climbing Washington Center
Sun 22:07:36 39.1622 -76.1458 82° East 359 413 16,400 2,800 Climbing Washington Center
Sun 22:08:36 39.1772 -76.0067 82° East 381 438 19,100 2,600 Climbing Washington Center
Sun 22:09:36 39.2089 -75.8594 74° East 404 465 21,600 2,600 Climbing Washington Center
Sun 22:10:36 39.2947 -75.7497 45° Northeast 399 459 24,300 2,550 Climbing Washington Center
Sun 22:11:36 39.3803 -75.6400 45° Northeast 424 488 26,700 2,200 Climbing Washington Center
Sun 22:12:36 39.4697 -75.5269 44° Northeast 434 499 28,700 1,900 Climbing Washington Center
Sun 22:13:36 39.5614 -75.4058 46° Northeast 448 516 30,500 1,150 Climbing Washington Center
Sun 22:14:36 39.6694 -75.3139 33° Northeast 454 522 31,000 250 Climbing Washington Center
Sun 22:15:36 39.7775 -75.2244 32° Northeast 459 528 31,000  Level Washington Center
Sun 22:15:52 39.8181 -75.1925 31° Northeast 461 531 31,000  Level New York Center
Sun 22:16:53 39.9131 -75.1039 36° Northeast 476 548 31,000 992 Level New York Center
Sun 22:17:53 40.0247 -75.0158 31° Northeast 476 548 33,000 1,916 Climbing New York Center
Sun 22:18:52 40.1322 -74.9219 34° Northeast 470 541 34,800 1,600 Climbing New York Center
Sun 22:19:53 40.2353 -74.8331 33° Northeast 465 535 36,200 1,100 Climbing New York Center
Sun 22:20:52 40.3447 -74.7386 33° Northeast 465 535 37,000 320 Climbing New York Center
Sun 22:22:23 40.5264 -74.6297 24° Northeast 460 529 37,000  Level Boston Center
Sun 22:23:22 40.6461 -74.5872 15° North 440 506 37,000  Level Boston Center
Sun 22:24:23 40.7636 -74.5419 16° North 440 506 37,000  Level Boston Center
Sun 22:25:22 40.8831 -74.5017 14° North 440 506 37,000  Level Boston Center
Sun 22:26:22 41.0028 -74.4589 15° North 434 499 37,000  Level Boston Center
Sun 22:27:23 41.1222 -74.4158 15° North 439 505 37,000  Level Boston Center
Sun 22:28:24 41.2311 -74.3806 14° North 439 505 37,000  Level Boston Center
Sun 22:29:21 41.3572 -74.3261 18° North 436 502 37,000  Level Boston Center
Sun 22:30:24 41.4808 -74.2828 15° North 441 507 37,000 -295 Level Boston Center
Sun 22:31:23 41.5919 -74.2444 14° North 441 507 36,400 -814 Descending Boston Center
Sun 22:32:22 41.7072 -74.2003 16° North 441 507 35,400 -950 Descending Boston Center
Sun 22:33:23 41.8167 -74.1364 24° Northeast 431 496 34,500 -893 Descending Boston Center
Sun 22:34:23 41.8897 -73.9906 56° Northeast 424 488 33,600 -1,261 Descending Boston Center
Sun 22:35:22 41.9561 -73.8386 60° Northeast 443 510 32,000 -1,785 Descending Boston Center
Sun 22:36:24 42.0225 -73.6947 58° Northeast 448 516 30,000 -2,050 Descending Boston Center
Sun 22:37:22 42.0908 -73.5481 58° Northeast 454 522 27,900 -2,034 Descending Boston Center
Sun 22:38:22 42.1544 -73.4119 58° Northeast 444 511 26,000 -1,686 Descending Boston Center
Sun 22:39:23 42.2139 -73.2811 58° Northeast 431 496 24,500 -1,200 Descending Boston Center
Sun 22:40:22 42.2772 -73.1417 58° Northeast 424 488 23,600 -1,000 Descending Boston Center
Sun 22:41:23 42.3406 -72.9964 59° Northeast 436 502 22,500 -1,033 Descending Boston Center
Sun 22:42:24 42.4017 -72.8619 58° Northeast 436 502 21,500 -1,000 Descending Boston Center
Sun 22:43:23 42.4625 -72.7272 58° Northeast 425 489 20,500 -1,311 Descending Boston Center
Sun 22:44:23 42.5294 -72.5867 57° Northeast 420 483 18,900 -1,800 Descending Boston Center
Sun 22:45:23 42.5881 -72.4542 59° Northeast 406 467 16,900 -2,000 Descending Boston Center
Sun 22:46:23 42.6422 -72.3300 59° Northeast 400 460 14,900 -2,083 Descending Boston Center
Sun 22:47:24 42.6961 -72.2083 59° Northeast 376 433 12,700 -2,017 Descending Boston Center
Sun 22:48:22 42.7439 -72.0981 59° Northeast 369 425 10,900 -1,373 Descending Boston Center
Sun 22:49:22 42.7956 -71.9761 60° Northeast 349 402 10,000 -1,300 Descending Boston Center
Sun 22:50:22 42.8367 -71.8853 58° Northeast 323 372 8,300 -1,835 Descending Boston Center
Sun 22:51:23 42.8925 -71.7825 53° Northeast 301 346 6,300 -1,869 Descending Boston Center
Sun 22:52:24 42.9419 -71.7028 50° Northeast 290 334 4,500 -1,884 Descending Boston Center
Sun 22:53:24 43.0039 -71.6111 47° Northeast 296 341 2,500 -1,017 Descending Boston Center
Sun 22:54:22 43.0472 -71.5453 48° Northeast 273 314 2,500 -303 Level Boston Center
Sun 22:55:23 43.0194 -71.4889 124° Southeast 154 177 1,900 -590 Descending Boston Center
Sun 22:56:24 42.9903 -71.4694 154° Southeast 123 142 1,300 -706 Descending Boston Center
Sun 22:57:22 42.9547 -71.4500 158° South 123 142 500 -513 Descending Boston Center
Sun 22:58:21 42.9231 -71.4278 153° Southeast 128 147 300 4,286 Descending Boston Center
Sun 22:59:21 42.8917 -71.4058 153° Southeast 128 147 9,000 4,314 Climbing Boston Center
Sun 23:00:22 42.8603 -71.3864 156° South 128 147 9,000  Level Boston Center
Sun 23:01:22 42.8289 -71.3644 153° Southeast 128 147 9,000  Level Boston Center
Sun 23:03:00 42.9167 -71.4333 316° Northwest  Level FlightAware Approximate

Login

Don't have an account? Register now (free) for customized features, flight alerts, and more!